S-NET D (43186 NORAD) Tracking and Keplerian Element Data

This shows tracking and keplerian element data for the satellite.

Feedback or suggestion? Click here.




ElementValue
Catalog43186
NameS-NET D
Epoch Orbit7872
Epoch Day193.6941437
Epoch Year2019
RAAN101.7991
Inclination97.7085
Eccentricity0.0009389
Argument of Perigee288.3927
Mean Anonmoly71.6273
Mean Motion14.96652379
Decay Rate6.73E-06
L11 43186U 18014G 19193.69414370 .00000673 00000-0 64041-4 0 9998
L22 43186 97.7085 101.7991 0009389 288.3927 71.6273 14.96652379 78728

Live tracking and technical data element details for S-NET D (NORAD 43186). S-NET D can be tracked NOW for your location showing map with azimuth and elevation plus other details from your city location.

Track the satellite on the map from your city or location and see movement details for azimuth, elevation, latitude, longitude, range, height, and movement on the map or in text.







IsCatalogInMostPopularTable: catalog: 43186, numindb: 292
Update: records affected: 1



GetName: 43186 S-NET D

Hit Count: updated at: Wed, 17 Jul 2019 21:02:11 GMT